Location: Newark
(33.6439°N, 114.9881°W)
Time: 09:12:13
(UTC+00:00)

A-11 Canister half - Visible Passes

Search period start: 10 August 2020 00:00
Search period end: 20 August 2020 00:00
Orbit: 1527 x 1682 km, 47.3° (Epoch: 09 August)

Date Brightness Start Highest point End Pass type
(mag) Time Alt. Az. Time Alt. Az. Time Alt. Az.
10 Aug 10.0 03:26:21 10° WNW 03:35:19 40° SW 03:44:01 10° SSE visible
11 Aug 10.0 03:04:35 10° WNW 03:13:43 43° SW 03:22:34 10° SSE visible
12 Aug 10.0 02:42:49 10° WNW 02:52:06 45° SW 03:01:06 10° SSE visible
15 Aug 11.3 03:49:26 10° WSW 03:50:42 10° WSW 03:51:59 10° SW visible
16 Aug 11.3 03:26:11 10° WSW 03:29:08 12° WSW 03:32:04 10° SW visible
17 Aug 11.2 03:03:38 10° W 03:07:34 13° WSW 03:11:27 10° SW visible
18 Aug 11.2 02:41:19 10° W 02:45:59 14° WSW 02:50:38 10° SSW visible
